Satellite: RS-38 Catalog number: 35869 Epoch time: 11271.93599415 Element set: 0743 Inclination: 098.6920 deg RA of node: 325.6910 deg Eccentricity: 0.0005394 Arg of perigee: 091.3307 deg Mean anomaly: 268.8486 deg Mean motion: 14.22021502 rev/day Decay rate: 1.77e-06 rev/day^2 Epoch rev: 10534 Checksum: 316
Satellite: ARISSAT1 Catalog number: 37772 Epoch time: 11272.28211712 Element set: 172 Inclination: 051.6405 deg RA of node: 356.0630 deg Eccentricity: 0.0009411 Arg of perigee: 274.8352 deg Mean anomaly: 127.8568 deg Mean motion: 15.65248811 rev/day Decay rate: 8.8287e-04 rev/day^2 Epoch rev: 875 Checksum: 302
/EX